User: anonymous
Location: Scultetus-Sternwarte G�rlitz
(51.1356°N, 14.9514°E)
Time: 08:39:20
(UTC+02:00)
Language:

Iridium 3 - Orbit

View from above orbital plane
View from above orbital plane
View from above satellite
View from above satellite

Ground track
Ground track

The orbit data is extracted from the following two-line orbital elements,

1 25431U 98048A   14209.43733123  .00000293  00000-0  97548-4 0  8132
2 25431 086.4000 336.5581 0002224 114.0903 309.9002 14.34219059834437
Epoch (UTC): 28 July 2014 10:29:45
Eccentricity: 0.0002224
inclination: 86.4000°
perigee height: 776 km
apogee height: 779 km
right ascension of ascending node: 336.5581°
argument of perigee: 114.0903°
revolutions per day: 14.34219059
mean anomaly at epoch: 309.9002°
orbit number at epoch: 83443

The dashed part of the orbit path shows where the satellite is in the earth's shadow,  

DLR